User: anonymous
Location: Platte
(43.3870°N, 98.8440°W)
Time: 05:26:31
(UTC-05:00)
Language:

Landsat 7 - Orbit

View from above orbital plane
View from above orbital plane
View from above satellite
View from above satellite

Ground track
Ground track

The orbit data is extracted from the following two-line orbital elements,

1 25682U 99020A   14274.80063871  .00000442  00000-0  10821-3 0  6671
2 25682 098.2283 343.0038 0001006 063.7274 296.4029 14.57095591822510
Epoch (UTC): 01 October 2014 19:12:55
Eccentricity: 0.0001006
inclination: 98.2283°
perigee height: 702 km
apogee height: 703 km
right ascension of ascending node: 343.0038°
argument of perigee: 63.7274°
revolutions per day: 14.57095591
mean anomaly at epoch: 296.4029°
orbit number at epoch: 82251

The dashed part of the orbit path shows where the satellite is in the earth's shadow,  

DLR